Location: Unspecified
(52.4292°N, 19.3359°E)
Time: 23:54:03
(UTC+02:00)

Altair - Pass Details

Date: 27 May 2024
Orbit: 1502 x 1682 km, 47.2° (Epoch: 19 June)

Event Time Altitude Azimuth Distance (km) Brightness Sun altitude
Rises 10:08:46 0° 231° (SW) 4,793 10.0 47.6°
Reaches altitude 10° 10:11:56 10° 227° (SW) 3,834 9.6 48.0°
Maximum altitude 10:21:16 51° 155° (SSE) 2,006 9.9 49.1°
Drops below altitude 10° 10:30:52 10° 84° (E) 3,942 10.2 50.3°
Sets 10:34:09 0° 80° (E) 4,937 10.5 50.7°
